sat.trackr.live / text

‹ back to catalog

STARLINK-32648

NORAD 62301 · 2024-239A

PAYLOAD ACTIVE UNKNOWN

§ Identity

Operator
Country
US
Launch date
2024-12-13
Launch site
AFWTR
Launch vehicle
Mass (kg)
RCS (m²)

Purposes: comms

External: N2YO · Heavens-Above · Gunter

§ Orbital elements

Epoch: 2026-09-21T11:48:29.920608Z

Period
93.85 min
Inclination
53.1605°
Eccentricity
0.0000949
Mean motion
15.34407699 rev/d
Perigee alt
462.0 km
Apogee alt
463.3 km
Semi-major
6,840.8 km
B*
4.0701e-4
RAAN
348.7122°
Arg perigee
95.1252°
Mean anomaly
264.9859°
Rev number
9,958

§ Raw data

STARLINK-326481 62301U 24239A   26264.49201297  .00013403  00000+0  40701-3 0  99912 62301  53.1605 348.7122 0000949  95.1252 264.9859 15.34407699 99589

JSON: /api/v1/satellites/62301 · /tle

For live sub-satellite position, see the globe view (requires WebGL).

§ Visibility from observer

Set your observer location to see the next 7 days of passes ≥ 10°. The values pass through the URL so the page stays shareable.

No JS? Fill the form by hand. The geolocation button needs JavaScript.